Regional Weather Roundup
Issued by NWS Little Rock, AR

Home | Current Version | Previous Version | Text Only | Print | Product List | Glossary On
Versions: 1 2 3 4 5 6 7 8 9 10 11 12 13 14 15 16 17 18 19 20 21 22 23 24 25 26 27 28 29 30 31 32 33 34 35 36 37 38 39 40 41 42 43 44 45 46 47 48 49 50
000
ASUS44 KLZK 010705
RWRLZK

WEATHER ROUNDUP FOR ARKANSAS
NATIONAL WEATHER SERVICE LITTLE ROCK AR
200 AM CDT FRI AUG 01 2014

NOTE: "FAIR" INDICATES FEW OR NO CLOUDS BELOW 12,000 FEET WITH NO
SIGNIFICANT WEATHER AND/OR OBSTRUCTIONS TO VISIBILITY.

ARZ001-003-010-029-010800-
NORTHWEST ARKANSAS

CITY           SKY/WX    TMP DP  RH WIND       PRES   REMARKS
FAYETTEVILLE   CLOUDY    65  65 100 CALM      30.10S
FORT SMITH     CLOUDY    70  66  87 NE5       30.06F
HARRISON       FOG       65  65 100 CALM      30.10S VSB 3/4
BENTONVILLE    CLOUDY    66  64  94 SW3       30.10S
ROGERS         CLOUDY    67  65  93 SW5       30.10S
SILOAM SPGS    CLOUDY    66  61  82 CALM      30.11S
HIGHFILL       CLOUDY    66  66 100 CALM      30.09S
$$

ARZ004-005-016-010800-
NORTH CENTRAL ARKANSAS

CITY           SKY/WX    TMP DP  RH WIND       PRES   REMARKS
BATESVILLE     CLOUDY    68  66  94 CALM      30.07S
FLIPPIN        CLOUDY    66  64  94 CALM      30.08S VSB 1
MTN HOME       CLEAR     64  64 100 CALM      30.08R FOG
$$

ARZ040-041-010800-
WEST CENTRAL ARKANSAS

CITY           SKY/WX    TMP DP  RH WIND       PRES   REMARKS
MENA           CLOUDY    68  66  94 CALM      30.07S
MOUNT IDA      CLOUDY    67  65  93 CALM      30.04F FOG
$$

ARZ009-017-025-026-028-010800-
NORTHEAST ARKANSAS

CITY           SKY/WX    TMP DP  RH WIND       PRES   REMARKS
CORNING        CLOUDY    68  68 100 CALM      30.07S FOG
JONESBORO      CLOUDY    70  66  87 CALM      30.06S
NEWPORT        CLOUDY    69  67  93 N8        30.07F
WALNUT RIDGE   PTCLDY    70  64  83 NE3       30.06S
BLYTHEVILLE    CLOUDY    70  68  93 NE3       30.06S
$$

ARZ022-023-033-042-044-010800-
CENTRAL ARKANSAS

CITY           SKY/WX    TMP DP  RH WIND       PRES   REMARKS
LITTLE ROCK    CLOUDY    70  66  87 CALM      30.06S
N LITTLE ROCK    N/A     67  67 100 NE5       30.06S
JACKSONVILLE   MOCLDY    69  67  94 E3        30.06S
SEARCY         MOCLDY    68  67  96 CALM      30.07S
HOT SPRINGS    CLOUDY    67  65  93 CALM      30.06F
RUSSELLVILLE   CLOUDY    69  67  93 CALM      30.06F FOG
CLINTON        FAIR      66  66 100 CALM      30.08S FOG
$$

ARZ036-010800-
EAST ARKANSAS

CITY           SKY/WX    TMP DP  RH WIND       PRES   REMARKS
WEST MEMPHIS   CLOUDY    69  68  96 CALM      30.05R
$$

ARZ050-053-066-070-073-010800-
SOUTHWEST ARKANSAS

CITY           SKY/WX    TMP DP  RH WIND       PRES   REMARKS
ARKADELPHIA    CLOUDY    69  68  97 NE6       30.04F
CAMDEN         MOCLDY    68  66  94 CALM      30.03S
TEXARKANA      LGT RAIN  66  66 100 E5        30.02S FOG
EL DORADO      LGT RAIN  68  66  93 SE8       30.03F
DE QUEEN       LGT RAIN  67  65  93 NE3       30.03S FOG
$$

ARZ056-057-069-010800-
SOUTHEAST ARKANSAS

CITY           SKY/WX    TMP DP  RH WIND       PRES   REMARKS
PINE BLUFF     CLOUDY    68  65  90 NE3       30.05S
STUTTGART      CLOUDY    70  64  83 NE10      30.05F
MONTICELLO     CLOUDY    70  68  93 E5        30.03F

$$




USA.gov is the U.S. government's official web portal to all federal, state and local government web resources and services.